OAL737 LGAV-LPMA

Flight info

Callsign OAL737
Flight time N/A
Altitude 34000
Route ASTOV DCT TRL DCT RESPA DCT LORNO/N0443F350 DCT SUBOK/N0442F340 DCT AGARI DCT SUSOM/N0446F360 DCT TUNEX DCT KAWKA DCT PAGRE DCT KIRLA DCT LIGUM/N0445F370 DCT OGDOR DCT RAKUN
Aircraft A320/M-SDE3FGHIRWY/LB1

Departure

Time N/A
Airport Athens Eleftherios Venizelos International Airport (LGAV)

Arrival

Time 2026-05-06 07:35
Airport Cristiano Ronaldo International Airport (LPMA)
Time Latitude Longitude Altitude Speed Heading
2026-05-06 07:11 33.70059 -15.04596 32895 ft 446 kts 261°
2026-05-06 07:12 33.69361 -15.08226 32635 ft 446 kts 261°
2026-05-06 07:12 33.68664 -15.11857 32385 ft 446 kts 261°
2026-05-06 07:12 33.67963 -15.15494 32124 ft 447 kts 260°
2026-05-06 07:12 33.67259 -15.19131 31867 ft 447 kts 260°
2026-05-06 07:13 33.66554 -15.22761 31620 ft 447 kts 260°
2026-05-06 07:13 33.65847 -15.26403 31370 ft 448 kts 260°
2026-05-06 07:13 33.65139 -15.30043 31117 ft 448 kts 260°
2026-05-06 07:13 33.64667 -15.32458 30961 ft 448 kts 260°
2026-05-06 07:14 33.63726 -15.37285 30645 ft 449 kts 260°
2026-05-06 07:14 33.63015 -15.40933 30402 ft 449 kts 259°
2026-05-06 07:14 33.62305 -15.44576 30155 ft 449 kts 259°
2026-05-06 07:14 33.61823 -15.47045 29966 ft 449 kts 259°
2026-05-06 07:15 33.60879 -15.51875 29594 ft 450 kts 259°
2026-05-06 07:15 33.60396 -15.54345 29364 ft 450 kts 259°
2026-05-06 07:15 33.59678 -15.58005 28607 ft 450 kts 259°
2026-05-06 07:15 33.58959 -15.61659 27809 ft 450 kts 259°
2026-05-06 07:16 33.58235 -15.65309 27028 ft 448 kts 259°
2026-05-06 07:16 33.57513 -15.68932 26273 ft 445 kts 259°
2026-05-06 07:16 33.56778 -15.72516 25536 ft 441 kts 256°
2026-05-06 07:16 33.55722 -15.75954 24822 ft 439 kts 248°
2026-05-06 07:17 33.54241 -15.79141 24122 ft 438 kts 239°
2026-05-06 07:17 33.52358 -15.82006 23381 ft 437 kts 230°
2026-05-06 07:17 33.50198 -15.84558 22570 ft 434 kts 227°
2026-05-06 07:17 33.48042 -15.87064 21786 ft 431 kts 227°
2026-05-06 07:18 33.45905 -15.89565 21023 ft 427 kts 227°
2026-05-06 07:18 33.43819 -15.92018 20287 ft 424 kts 227°
2026-05-06 07:18 33.41722 -15.94483 19548 ft 421 kts 227°
2026-05-06 07:18 33.39638 -15.96932 18832 ft 418 kts 227°
2026-05-06 07:19 33.37569 -15.99355 18098 ft 415 kts 227°
2026-05-06 07:19 33.35498 -16.01769 17297 ft 413 kts 227°
2026-05-06 07:19 33.33447 -16.04156 16519 ft 410 kts 226°
2026-05-06 07:19 33.31413 -16.06524 15772 ft 408 kts 226°
2026-05-06 07:20 33.29385 -16.08885 15034 ft 405 kts 226°
2026-05-06 07:20 33.27369 -16.11231 14317 ft 404 kts 227°
2026-05-06 07:20 33.25362 -16.13568 13557 ft 401 kts 226°
2026-05-06 07:20 33.23371 -16.15886 12779 ft 398 kts 227°
2026-05-06 07:21 33.21392 -16.18188 12014 ft 395 kts 227°
2026-05-06 07:21 33.19428 -16.20468 11263 ft 393 kts 227°
2026-05-06 07:21 33.17478 -16.22725 10687 ft 386 kts 227°
2026-05-06 07:21 33.15598 -16.24899 10300 ft 375 kts 227°
2026-05-06 07:22 33.13752 -16.27031 9908 ft 364 kts 227°
2026-05-06 07:22 33.11954 -16.29105 9489 ft 355 kts 225°
2026-05-06 07:22 33.10207 -16.31122 9064 ft 345 kts 227°
2026-05-06 07:22 33.08499 -16.33099 8636 ft 338 kts 225°
2026-05-06 07:23 33.06831 -16.35029 8235 ft 331 kts 227°
2026-05-06 07:23 33.05197 -16.36920 7828 ft 324 kts 227°
2026-05-06 07:23 33.03593 -16.38774 7467 ft 319 kts 226°
2026-05-06 07:23 33.02012 -16.40601 7072 ft 314 kts 227°
2026-05-06 07:24 33.00455 -16.42399 6686 ft 310 kts 227°
2026-05-06 07:24 32.98920 -16.44169 6283 ft 305 kts 225°
2026-05-06 07:24 32.97403 -16.45916 5868 ft 301 kts 226°
2026-05-06 07:24 32.95910 -16.47634 5568 ft 294 kts 225°
2026-05-06 07:25 32.94459 -16.49301 5333 ft 285 kts 225°
2026-05-06 07:25 32.93051 -16.50919 5108 ft 278 kts 226°
2026-05-06 07:25 32.91645 -16.52498 4879 ft 276 kts 223°
2026-05-06 07:25 32.90224 -16.54033 4642 ft 278 kts 223°
2026-05-06 07:26 32.88789 -16.55556 4404 ft 273 kts 223°
2026-05-06 07:26 32.87390 -16.57027 4165 ft 265 kts 223°
2026-05-06 07:26 32.86046 -16.58440 3936 ft 258 kts 223°
2026-05-06 07:26 32.84696 -16.59868 3707 ft 254 kts 222°
2026-05-06 07:27 32.83375 -16.61270 3476 ft 255 kts 223°
2026-05-06 07:27 32.82003 -16.62606 3246 ft 257 kts 215°
2026-05-06 07:27 32.80456 -16.63585 3072 ft 250 kts 201°
2026-05-06 07:27 32.78838 -16.64251 3007 ft 236 kts 198°
2026-05-06 07:28 32.77292 -16.64875 3010 ft 235 kts 198°
2026-05-06 07:28 32.75764 -16.65494 3013 ft 234 kts 198°
2026-05-06 07:28 32.72679 -16.66747 2815 ft 230 kts 198°
2026-05-06 07:29 32.71187 -16.67355 2696 ft 223 kts 198°
2026-05-06 07:29 32.69736 -16.67941 2557 ft 218 kts 198°
2026-05-06 07:29 32.68314 -16.68514 2434 ft 214 kts 198°
2026-05-06 07:29 32.66918 -16.69078 2323 ft 210 kts 198°
2026-05-06 07:30 32.65534 -16.69638 2205 ft 207 kts 197°
2026-05-06 07:30 32.64205 -16.70176 2093 ft 197 kts 198°
2026-05-06 07:30 32.63001 -16.70886 1939 ft 191 kts 214°
2026-05-06 07:30 32.62031 -16.71915 1744 ft 185 kts 231°
2026-05-06 07:31 32.61341 -16.73169 1561 ft 179 kts 247°
2026-05-06 07:31 32.60949 -16.74523 1385 ft 168 kts 262°
2026-05-06 07:31 32.60833 -16.75863 1269 ft 159 kts 276°
2026-05-06 07:31 32.60958 -16.77133 1208 ft 152 kts 289°
2026-05-06 07:32 32.61312 -16.78293 1210 ft 147 kts 306°
2026-05-06 07:32 32.61915 -16.79233 1211 ft 140 kts 325°
2026-05-06 07:32 32.62683 -16.79894 1208 ft 134 kts 340°
2026-05-06 07:32 32.63549 -16.80270 1208 ft 132 kts 353°
2026-05-06 07:33 32.64464 -16.80358 1207 ft 133 kts
2026-05-06 07:33 32.65394 -16.80356 1196 ft 136 kts
2026-05-06 07:33 32.66333 -16.80344 1019 ft 137 kts
2026-05-06 07:33 32.67250 -16.80080 758 ft 135 kts 21°
2026-05-06 07:34 32.68043 -16.79480 480 ft 137 kts 39°
2026-05-06 07:34 32.68714 -16.78692 292 ft 136 kts 40°
2026-05-06 07:34 32.69392 -16.77907 193 ft 132 kts 38°
2026-05-06 07:34 32.69907 -16.77306 176 ft 52 kts 46°
2026-05-06 07:35 32.69948 -16.77200 176 ft 9 kts 127°
2026-05-06 07:35 32.69893 -16.77179 176 ft 8 kts 178°
2026-05-06 07:35 32.69842 -16.77184 176 ft 7 kts 195°
2026-05-06 07:35 32.69806 -16.77213 176 ft 6 kts 220°
2026-05-06 07:36 32.69779 -16.77245 176 ft 5 kts 224°
2026-05-06 07:36 32.69757 -16.77273 176 ft 4 kts 228°
2026-05-06 07:36 32.69739 -16.77297 176 ft 4 kts 230°
2026-05-06 07:36 32.69720 -16.77323 176 ft 8 kts 226°
2026-05-06 07:37 32.69678 -16.77376 176 ft 9 kts 226°
2026-05-06 07:37 32.69638 -16.77425 176 ft 8 kts 226°
2026-05-06 07:37 32.69602 -16.77471 176 ft 7 kts 226°
2026-05-06 07:37 32.69569 -16.77512 176 ft 7 kts 226°
2026-05-06 07:38 32.69526 -16.77567 176 ft 9 kts 227°
2026-05-06 07:38 32.69483 -16.77621 176 ft 9 kts 226°
2026-05-06 07:38 32.69443 -16.77670 176 ft 8 kts 226°
2026-05-06 07:38 32.69407 -16.77715 176 ft 7 kts 226°
2026-05-06 07:39 32.69374 -16.77755 176 ft 6 kts 226°
2026-05-06 07:39 32.69342 -16.77767 176 ft 4 kts 153°
2026-05-06 07:39 32.69321 -16.77743 176 ft 4 kts 137°
2026-05-06 07:39 32.69312 -16.77734 176 ft 1 kts 138°
2026-05-06 07:40 32.69310 -16.77731 176 ft 0 kts 138°